Showing default

SKYNET 4B, 19687

Orbit data source: Space-Track

SKYNET 4B, 19687 is a payload satellite owned by UK MoD (UK) in GEO that was launched on Sun, 11 Dec 1988 UTC via an ARIANE 44LP launch vehicle from the French Guiana (FRGUI). Payload-class satellites include a variety of spacecraft equipped with specific instruments for various scientific and technological missions. These include communications satellites like Starlink; space stations such as the ISS; scientific satellites like the Hubble; Earth observation satellites from companies like Planet Labs, Umbra, and HawkEye 360; GPS; miniature CubeSats for education and research; and military/defense satellites.

Not visible in the next 10 days
Identifier
19687, 1988-109A
Orbit
GEO
Country
Flag of UKUK
Related business
Manufacturer
BAe
Mission
Non-operational Defense Communications
Bus & Motor
ECS, TE-M-700-19
Mass
1,433 kg wet, 655 kg dry
Launch date (UTC)
1988-12-11 (37 years ago)
Launch vehicle
ARIANE 44LP
Launch site
French Guiana (FRGUI)
Object type
Payload
Rocket body
Debris
Shape & HBR
Hex Poly + 2 Pan, 8.0 m
Radar Cross Section
11.617 m², Large (>1 m²)

Expand to show TLE details & history
Last TLE update: 1 day ago

TLE from 1 day ago
0 SKYNET 4B
1 19687U 88109A   26034.85868705 -.00000272  00000-0  00000-0 0  9991
2 19687  13.2264 337.8522 0008692 304.3184 269.5496  0.99668935116834
Epoch: 2026-02-03T20:36Z
TLE epoch observation values (Epoch: 2026-02-03T20:36:30.561Z)
Latitude
-7.30698°
Longitude
107.77841°
Altitude
35,957.766 km
Speed
3.068 km/s
True Right ascension
12h 43m 45s
True Declination
-7° 17' 59"
Sunlit
Object was in daylight at epoch
Visualization orbit readout
Latitude
Unknown
Longitude
Unknown
Altitude
Unknown
Speed
Unknown
Apparent Right ascension
Unknown
Apparent Declination
Unknown
Sunlit
N/A
Visualization observer readout
Local Sidereal Time
04:44:45
Azimuth
Unknown
Elevation
Unknown
Doppler factor
Unknown
Orbital elements
Apogee altitude
35,994.23 km
Perigee altitude
35,920.633 km
Semi-major axis
42,335.569 km
Eccentricity
0.00087
Inclination
13.2264°
RAAN
337.8522°
Arg. of periapsis
304.3184°
True anomaly
269.45°
Mean anomaly
269.5496°
Eccentric anomaly
269.4998°
Mean motion
0.24916 °/min
Orbital period
1,444.83 mins
BSTAR
0
Loading maneuver chart data...
Computing Atmospheric mass density...
Loading historical data...
Loading historical data...
Loading historical data...
Loading historical data...
Loading historical data...
Loading historical data...
Loading historical data...

Documentation

Showing up to 5 results
|